EW7070 Weather Reports


time (UTC)temp
C
wind
direction
speed
KPH
gust
KPH
rain 1hr
cm
rain 24hr
cm
rain mn
cm
humidity
%
barometer
mb
20260503055046 10 264 0.0 1.6 0.00 0.03 0.00 92 1023.8
20260503054544 10 264 0.0 0.0 0.00 0.05 0.00 91 1023.7
20260503054043 10 264 0.0 3.2 0.00 0.08 0.00 91 1023.8
20260503053540 11 264 0.0 3.2 0.00 0.10 0.00 91 1023.7
20260503053038 11 264 0.0 1.6 0.00 0.10 0.00 91 1023.7
20260503052538 11 264 0.0 1.6 0.00 0.13 0.00 92 1023.7
20260503052023 11 264 0.0 0.0 0.00 0.18 0.00 92 1023.7
20260503051457 11 264 0.0 0.0 0.00 0.23 0.00 92 1023.7
20260503050932 11 264 0.0 0.0 0.00 0.28 0.00 92 1023.8
20260503050430 12 264 0.0 0.0 0.00 0.33 0.00 93 1023.7
20260503045930 12 264 0.0 0.0 0.00 0.38 0.00 93 1023.7
20260503045430 12 264 0.0 0.0 0.00 0.46 0.00 93 1023.8
20260503044927 12 264 0.0 0.0 0.00 0.53 0.00 94 1023.8
20260503044355 12 264 0.0 0.0 0.00 0.58 0.00 94 1023.8
20260503043826 12 264 0.0 1.6 0.00 0.66 0.00 94 1023.9
20260503043324 12 264 0.0 1.6 0.00 0.71 0.00 94 1023.9
20260503042823 12 264 0.0 0.0 0.00 0.76 0.00 94 1023.8
20260503042322 12 264 0.0 0.0 0.00 0.81 0.00 94 1023.9
20260503041817 12 264 0.0 0.0 0.00 0.89 0.00 94 1023.8
20260503041316 12 264 0.0 0.0 0.00 0.91 0.00 94 1023.8
20260503040749 12 264 0.0 0.0 0.00 0.97 0.00 94 1023.8
20260503040245 12 264 0.0 0.0 0.00 1.02 0.00 94 1023.9
20260503035950 12 264 0.0 0.0 0.00 1.04 0.00 94 1023.8
20260503035157 12 264 0.0 0.0 0.00 1.09 0.00 93 1023.8
20260503034656 12 264 0.0 1.6 0.00 1.12 0.00 93 1023.8
20260503034156 12 264 0.0 1.6 0.00 1.19 0.00 93 1023.7
20260503033646 12 264 0.0 1.6 0.00 1.27 0.00 92 1023.8
20260503033142 12 264 0.0 1.6 0.00 1.30 0.00 92 1023.8
20260503032631 12 264 0.0 0.0 0.00 1.37 0.00 92 1023.7
20260503032116 12 264 0.0 0.0 0.00 1.42 0.00 92 1023.7
20260503031550 12 264 0.0 0.0 0.00 1.45 0.00 91 1023.6
20260503031023 12 264 0.0 0.0 0.00 1.47 0.00 90 1023.7
20260503030524 12 264 0.0 3.2 0.00 1.47 0.00 90 1023.6
20260503030004 12 264 1.6 3.2 0.00 1.50 0.00 89 1023.6
20260503025440 12 234 1.6 3.2 0.00 1.52 1.50 88 1023.6
20260503024937 13 234 0.0 3.2 0.00 1.55 1.50 87 1023.5
20260503024435 13 234 1.6 3.2 0.00 1.60 1.50 86 1023.5
20260503023912 13 234 1.6 3.2 0.00 1.70 1.50 87 1023.6
20260503023347 13 182 0.0 3.2 0.00 1.75 1.50 86 1023.5
20260503022845 13 103 1.6 4.8 0.00 1.78 1.50 86 1023.5
20260503022615 13 182 3.2 6.4 0.00 1.78 1.50 85 1023.4
20260503021834 13 293 3.2 6.4 0.00 1.83 1.50 85 1023.4
20260503021605 13 241 3.2 6.4 0.00 1.88 1.50 85 1023.3
20260503020812 13 258 3.2 6.4 0.00 1.93 1.50 86 1023.3
20260503020309 13 267 1.6 6.4 0.00 1.93 1.50 87 1023.4
20260503015806 13 328 1.6 6.4 0.00 1.96 1.50 88 1023.2
20260503015534 13 254 1.6 6.4 0.00 1.96 1.50 89 1023.3
20260503015019 13 265 0.0 4.8 0.00 2.01 1.50 91 1023.3
20260503014517 13 233 1.6 4.8 0.00 2.03 1.50 93 1023.1
20260503013744 13 243 1.6 8.0 0.00 2.03 1.50 94 1023.1
20260503013245 13 247 1.6 8.0 0.00 2.06 1.50 95 1023.1
20260503012745 13 207 1.6 6.4 0.00 2.06 1.50 96 1022.9
20260503012516 13 103 0.0 4.8 0.00 2.11 1.50 96 1022.9
20260503011718 13 233 1.6 4.8 0.00 2.18 1.50 96 1022.8
20260503011155 13 245 1.6 4.8 0.00 2.26 1.50 96 1022.6
20260503010652 13 252 0.0 3.2 0.00 2.39 1.50 95 1022.6
20260503010152 13 252 0.0 0.0 0.00 2.62 1.50 94 1022.6
20260503005627 13 252 0.0 0.0 0.00 3.05 1.50 94 1022.6
20260503005119 13 252 0.0 0.0 0.00 3.45 1.50 94 1022.5
20260503004615 13 252 0.0 0.0 0.00 3.86 1.50 94 1022.5
20260503004052 14 252 0.0 0.0 0.00 4.01 1.50 94 1022.3
20260503003555 14 252 0.0 0.0 0.00 4.37 1.50 93 1022.2
20260503003052 14 252 0.0 0.0 0.00 4.70 1.50 94 1022.2
20260503002551 14 252 0.0 0.0 0.00 5.00 1.50 93 1022.1
20260503002024 15 252 0.0 0.0 0.00 5.23 1.50 93 1021.8
20260503001515 15 252 0.0 0.0 0.00 5.38 1.50 93 1021.7
20260503000950 15 252 0.0 1.6 0.00 5.87 1.50 93 1021.7
20260503000424 15 252 0.0 1.6 0.00 5.87 1.50 93 1021.6
20260502235917 15 252 0.0 0.0 0.00 5.87 1.50 93 1021.5
20260502235352 15 252 0.0 1.6 0.00 5.87 1.50 94 1021.5
20260502234826 15 252 1.6 3.2 0.00 5.89 1.50 94 1021.4
20260502234300 15 252 1.6 3.2 0.00 5.89 1.50 94 1021.3
20260502233800 15 252 1.6 3.2 0.00 5.89 1.50 94 1021.1
20260502233302 16 252 0.0 3.2 0.00 5.89 1.50 94 1021.2
20260502232758 16 252 0.0 1.6 0.00 5.89 1.50 94 1021.1
20260502232258 16 252 0.0 0.0 0.00 5.89 1.50 94 1021.1
20260502231752 16 252 0.0 1.6 0.00 5.89 1.50 93 1021.1
20260502231253 16 252 0.0 1.6 0.00 5.89 1.50 92 1021.1
20260502230737 16 252 0.0 1.6 0.00 5.89 1.50 92 1021.0
20260502230444 16 252 0.0 3.2 0.00 5.89 1.50 92 1021.0
20260502225643 16 252 0.0 3.2 0.00 5.89 1.50 92 1020.9
20260502225135 16 252 0.0 0.0 0.00 5.89 1.50 91 1020.8
20260502224634 16 252 0.0 0.0 0.00 5.89 1.50 91 1020.7
20260502224106 17 252 0.0 0.0 0.00 5.89 1.50 91 1020.7
20260502223554 17 252 0.0 0.0 0.00 5.89 1.50 90 1020.6
20260502223056 17 252 0.0 0.0 0.00 5.89 1.50 89 1020.6
20260502222527 17 252 0.0 0.0 0.00 5.89 1.50 89 1020.5
20260502222012 17 252 0.0 0.0 0.00 5.89 1.50 87 1020.5
20260502221513 17 252 0.0 0.0 0.00 5.89 1.50 87 1020.4
20260502220946 18 252 0.0 0.0 0.00 5.89 1.50 87 1020.2
20260502220443 18 252 0.0 3.2 0.00 5.89 1.50 87 1020.3
20260502215934 18 252 0.0 3.2 0.00 5.89 1.50 88 1020.3
20260502215432 18 252 0.0 3.2 0.00 5.89 1.50 87 1020.0
20260502215135 18 252 0.0 1.6 0.00 5.89 1.50 87 1020.1
20260502214355 18 252 0.0 3.2 0.00 5.89 1.50 87 1020.0
20260502214100 18 260 1.6 6.4 0.00 5.89 1.50 87 1020.0
20260502213302 18 242 3.2 9.7 0.00 5.89 1.50 87 1019.9
20260502213005 18 232 1.6 6.4 0.00 5.89 1.50 87 1019.6
20260502212837 18 247 3.2 9.7 0.00 5.89 1.50 88 1019.8
20260502211933 18 284 1.6 3.2 0.00 5.89 1.50 87 1019.6
20260502211159 18 284 0.0 3.2 0.00 5.89 1.50 86 1019.5
20260502210657 19 284 0.0 3.2 0.00 5.89 1.50 85 1019.4
20260502210130 19 284 1.6 4.8 0.00 5.89 1.50 86 1019.3
20260502205628 19 248 1.6 4.8 0.00 5.89 1.50 85 1019.3
20260502205100 20 249 0.0 1.6 0.00 5.89 1.50 85 1019.3
20260502204532 20 249 0.0 4.8 0.00 5.89 1.50 84 1019.2
20260502204014 20 249 1.6 4.8 0.00 5.89 1.50 84 1019.2
20260502203513 20 278 1.6 4.8 0.00 5.89 1.50 84 1019.2
20260502203014 21 273 1.6 4.8 0.00 5.92 1.50 84 1019.1
20260502202514 21 253 1.6 4.8 0.00 5.92 1.50 83 1019.1
20260502201954 21 300 1.6 3.2 0.00 5.92 1.50 82 1019.0
20260502201725 21 286 1.6 3.2 0.00 5.94 1.50 81 1019.0
20260502200955 21 286 1.6 3.2 0.00 5.99 1.50 81 1019.0
20260502200452 21 263 1.6 3.2 0.00 6.05 1.50 80 1018.9
20260502200219 21 264 1.6 6.4 0.00 6.15 1.50 80 1018.9
20260502195420 21 259 3.2 8.0 0.00 6.15 1.50 79 1018.9
20260502195146 21 245 3.2 6.4 0.00 6.15 1.50 79 1018.9
20260502194415 21 270 4.8 12.9 0.00 6.15 1.50 80 1018.8
20260502193845 21 250 3.2 12.9 0.00 6.15 1.50 79 1018.8
20260502193341 21 245 3.2 8.0 0.00 6.15 1.50 80 1018.7
20260502192827 21 259 4.8 8.0 0.00 6.15 1.50 79 1018.7
20260502192604 21 275 3.2 8.0 0.00 6.15 1.50 80 1018.4
20260502192326 21 253 3.2 8.0 0.00 6.15 1.50 79 1018.5
20260502191257 21 255 3.2 8.0 0.00 6.15 1.50 80 1018.3
20260502190745 21 255 6.4 12.9 0.00 6.15 1.50 79 1018.2
20260502190218 21 249 4.8 14.5 0.00 6.15 1.50 80 1018.2
20260502185947 21 254 3.2 8.0 0.00 6.15 1.50 80 1018.2
20260502185148 21 262 4.8 11.3 0.00 6.15 1.50 79 1018.1
20260502184621 21 249 4.8 14.5 0.00 6.15 1.50 78 1018.1
20260502184354 22 268 4.8 14.5 0.00 6.15 1.50 78 1018.1
20260502183612 22 187 4.8 11.3 0.00 6.15 1.50 78 1017.9
20260502183110 22 251 6.4 16.1 0.00 6.15 1.50 78 1018.0
20260502182545 22 258 6.4 16.1 0.00 6.15 1.50 78 1017.9
20260502182018 22 267 4.8 14.5 0.00 6.15 1.50 78 1017.9
20260502181742 22 205 4.8 12.9 0.00 6.15 1.50 78 1017.9
20260502181009 22 270 4.8 12.9 0.00 6.15 1.50 78 1017.9
20260502180444 22 289 3.2 11.3 0.00 6.15 1.50 80 1017.9
20260502170311 22 263 3.2 17.7 0.00 6.15 1.50 81 1017.9
20260502164218 22 276 8.0 16.1 0.00 6.15 1.50 81 1017.9
20260502163716 22 207 8.0 16.1 0.00 6.15 1.50 81 1018.0
20260502163214 22 266 8.0 19.3 0.00 6.15 1.50 81 1018.0
20260502162648 22 268 6.4 19.3 0.00 6.15 1.50 81 1018.0
20260502162118 22 249 6.4 20.9 0.00 6.15 1.50 82 1017.8
20260502161550 22 253 8.0 20.9 0.00 6.15 1.50 82 1017.6
20260502161048 22 257 6.4 14.5 0.00 6.15 1.50 82 1017.7
20260502160813 22 251 6.4 17.7 0.00 6.15 1.50 83 1017.6
20260502151945 23 272 6.4 16.1 0.00 6.15 1.50 83 1017.0
20260502151446 23 247 4.8 12.9 0.00 6.15 1.50 84 1016.8
20260502150920 23 257 4.8 12.9 0.00 6.15 1.50 83 1016.9
20260502150354 23 266 4.8 11.3 0.00 6.15 1.50 83 1016.9
20260502130733 20 310 1.6 4.8 0.00 6.15 1.50 96 1016.9
20260502130231 20 293 3.2 6.4 0.00 6.15 1.50 96 1016.5
20260502123330 20 212 1.6 4.8 0.00 6.15 1.50 96 1016.5
20260502122806 20 322 1.6 4.8 0.00 6.15 1.50 96 1016.4
20260502122529 20 305 1.6 9.7 0.00 6.15 1.50 96 1016.4
20260502121752 20 223 3.2 11.3 0.00 6.15 1.50 97 1016.1
20260502121249 20 258 3.2 9.7 0.00 6.15 1.50 97 1015.8
20260502120953 20 272 3.2 11.3 0.00 6.15 1.50 97 1015.7
20260502120213 20 312 3.2 11.3 0.00 6.15 1.50 97 1015.6
20260502115713 20 280 3.2 9.7 0.00 6.15 1.50 97 1015.6
20260502115145 20 280 4.8 11.3 0.00 6.15 1.50 97 1015.4
20260502114629 20 287 4.8 11.3 0.00 6.15 1.50 96 1015.1
20260502114116 20 294 4.8 11.3 0.00 6.15 1.50 96 1015.2
20260502113550 20 293 4.8 11.3 0.00 6.15 1.50 96 1015.4
20260502113037 20 272 3.2 12.9 0.00 6.15 1.50 96 1015.1
20260502112525 20 280 3.2 12.9 0.00 6.15 1.50 96 1014.9
20260502111958 20 289 4.8 12.9 0.00 6.15 1.50 96 1014.6
20260502111714 20 266 4.8 12.9 0.00 6.15 1.50 96 1014.6
20260502110932 20 271 4.8 9.7 0.00 6.15 1.50 96 1014.3
20260502110430 20 276 4.8 11.3 0.00 6.15 1.50 96 1014.1
20260502110157 20 274 3.2 11.3 0.00 6.15 1.50 96 1014.0
20260502105423 20 308 3.2 9.7 0.00 6.15 1.50 96 1013.7
20260502104923 20 287 1.6 8.0 0.00 6.15 1.50 96 1013.5
20260502104420 20 303 1.6 4.8 0.00 6.15 1.50 95 1013.3
20260502103907 20 303 1.6 4.8 0.00 6.15 1.50 95 1013.2
20260502103357 20 318 3.2 6.4 0.00 6.15 1.50 95 1013.1
20260502102855 20 318 4.8 9.7 0.00 6.15 1.50 95 1013.1
20260502102350 20 289 4.8 9.7 0.00 6.15 1.50 95 1013.0
20260502102120 20 326 3.2 6.4 0.00 6.15 1.50 95 1012.9
20260502101347 20 322 3.2 6.4 0.00 6.15 1.50 94 1012.5
20260502100820 20 290 4.8 9.7 0.00 6.15 1.50 94 1012.5
20260502100320 20 288 4.8 9.7 0.00 6.15 1.50 94 1012.3
20260502091416 20 290 8.0 19.3 0.00 6.15 1.50 93 1011.3
20260502090611 20 282 8.0 19.3 0.00 6.15 1.50 93 1011.4
20260502071208 19 24 1.6 9.7 0.03 6.15 1.50 98 1009.8
20260502070705 19 285 3.2 9.7 0.03 6.15 1.50 98 1009.9
20260502070143 19 289 4.8 11.3 0.03 6.15 1.50 98 1010.1
20260502065644 19 275 3.2 11.3 0.03 6.15 1.50 98 1010.2
20260502065146 19 304 4.8 8.0 0.03 6.15 1.50 98 1010.1
20260502065139 19 263 3.2 9.7 0.03 6.15 1.50 98 1010.2